Hourly Data Report for September 11, 2020

GIMLI CLIMATE
MANITOBA
Current Station Operator: ECCC - MSC

50°38'00.000" N
97°03'00.000" W
230.10 m
5031042
71748
PGH

Download Data

Hourly Data (September 2020)
Hourly Data Report for September 11, 2020
TIME Temp Definition
°C
Dew Point Definition
°C
Rel Hum Definition
%
Wind Dir Definition
10's deg

Wind Spd Definition
km/h
Visibility Definition
km
Stn Press Definition
kPa
Hmdx Definition


Wind Chill Definition


Weather Definition


00:00 13.2 9.1 76 7 10   99.57     LegendNANA
01:00 12.3 8.0 75 9 10   99.55     LegendNANA
02:00 12.0 8.1 77 9 9   99.47     LegendNANA
03:00 12.5 8.0 74 11 9   99.41     LegendNANA
04:00 11.2 7.7 79 16 9   99.39     LegendNANA
05:00 8.4 5.6 82 18 10   99.36     LegendNANA
06:00 7.4 4.5 81 18 10   99.33     LegendNANA
07:00 8.5 4.6 77 18 17   99.33     LegendNANA
08:00 11.2 5.6 68 19 18   99.30     LegendNANA
09:00 14.8 5.9 55 19 16   99.26     LegendNANA
10:00 17.6 5.8 46 18 24   99.23     LegendNANA
11:00 19.2 4.5 38 19 26   99.18     LegendNANA
12:00 21.0 2.7 30 19 28   99.09     LegendNANA
13:00 21.3 2.5 29 19 28   99.00     LegendNANA
14:00 21.8 2.3 28 18 31   98.89     LegendNANA
15:00 21.8 0.5 24 18 32   98.80     LegendNANA
16:00 21.2 1.2 26 18 31   98.74     LegendNANA
17:00 20.5 1.6 28 18 28   98.68     LegendNANA
18:00 19.4 1.6 31 18 25   98.64     LegendNANA
19:00 17.1 1.8 36 18 22   98.58     LegendNANA
20:00 15.0 2.4 43 18 14   98.57     LegendNANA
21:00 13.0 3.1 51 19 16   98.53     LegendNANA
22:00 12.3 3.5 55 18 18   98.48     LegendNANA
23:00 11.3 4.1 61 19 17   98.44     LegendNANA

Notes on Data Quality.

Legend

  • E = Estimated
  • M = Missing
  • NA = Not Available*
  • [empty] = Indicates an unobserved value
Date modified: